• In Belarus
  • List of Countries
  • For 7 days
  • Water Temperature
  • Satellite Maps
  • Weather Map
  • Weather Widgets
  • user-avatar
    Login

    Hourly Weather Cyklady

    Today, 19 January, Friday

    Time Temperature Precipitation Wind Pressure Humidity
    00:00 -1°C° 0 mm 3 mps 683 mmHg 54%
    01:00 -2°C° 0 mm 3 mps 683 mmHg 50%
    02:00 -2°C° 0 mm 3 mps 683 mmHg 51%
    03:00 -2°C° 0 mm 3 mps 683 mmHg 52%
    04:00 -2°C° 0 mm 3 mps 683 mmHg 53%
    05:00 -1°C° 0 mm 3 mps 683 mmHg 57%
    06:00 -1°C° 0 mm 3 mps 683 mmHg 61%
    07:00 -1°C° 0 mm 3 mps 683 mmHg 65%
    08:00 +2°C° 0 mm 3 mps 684 mmHg 63%
    09:00 +4°C° 0 mm 3 mps 684 mmHg 61%
    10:00 +7°C° 0 mm 3 mps 684 mmHg 59%
    11:00 +8°C° 0 mm 3 mps 684 mmHg 60%
    12:00 +8°C° 0 mm 3 mps 684 mmHg 60%
    13:00 +9°C° 0 mm 3 mps 684 mmHg 64%
    14:00 +8°C° 0 mm 2 mps 684 mmHg 69%
    15:00 +7°C° 0 mm 2 mps 684 mmHg 75%
    16:00 +6°C° 0 mm 2 mps 683 mmHg 80%
    17:00 +5°C° 0 mm 2 mps 683 mmHg 84%
    18:00 +4°C° 0 mm 2 mps 683 mmHg 87%
    19:00 +3°C° 0 mm 2 mps 683 mmHg 91%
    20:00 +3°C° 0 mm 2 mps 683 mmHg 91%
    21:00 +3°C° 0 mm 2 mps 683 mmHg 91%
    22:00 +3°C° 0 mm 2 mps 683 mmHg 91%
    23:00 +3°C° 0 mm 2 mps 683 mmHg 91%

    Tomorrow, 20 January, Saturday

    Time Temperature Precipitation Wind Pressure Humidity
    00:00 +3°C° 0 mm 2 mps 683 mmHg 91%
    01:00 +3°C° 0 mm 2 mps 683 mmHg 92%
    02:00 +3°C° 0 mm 2 mps 682 mmHg 92%
    03:00 +3°C° 0 mm 2 mps 682 mmHg 93%
    04:00 +3°C° 0 mm 2 mps 682 mmHg 94%
    05:00 +3°C° 0 mm 2 mps 682 mmHg 94%
    06:00 +3°C° 0 mm 2 mps 682 mmHg 94%
    07:00 +3°C° 0 mm 2 mps 682 mmHg 94%
    08:00 +4°C° 0.1 mm 2 mps 682 mmHg 89%
    09:00 +6°C° 0.1 mm 2 mps 682 mmHg 85%
    10:00 +8°C° 0.1 mm 2 mps 683 mmHg 80%
    11:00 +8°C° 0.1 mm 3 mps 682 mmHg 79%
    12:00 +8°C° 0.1 mm 3 mps 682 mmHg 79%
    13:00 +9°C° 0.1 mm 3 mps 682 mmHg 78%
    14:00 +8°C° 0.1 mm 3 mps 682 mmHg 81%
    15:00 +8°C° 0.1 mm 3 mps 681 mmHg 84%
    16:00 +7°C° 0.1 mm 2 mps 681 mmHg 88%
    17:00 +7°C° 0.1 mm 2 mps 681 mmHg 90%
    18:00 +6°C° 0.1 mm 2 mps 681 mmHg 92%
    19:00 +6°C° 0.1 mm 2 mps 681 mmHg 94%
    20:00 +5°C° 0 mm 2 mps 681 mmHg 94%
    21:00 +5°C° 0 mm 2 mps 681 mmHg 95%
    22:00 +5°C° 0 mm 2 mps 680 mmHg 95%
    23:00 +5°C° 0.1 mm 2 mps 680 mmHg 95%

    Day after tomorrow, 21 January, Sunday

    Time Temperature Precipitation Wind Pressure Humidity
    00:00 +5°C° 0.1 mm 2 mps 680 mmHg 95%
    01:00 +5°C° 0.1 mm 2 mps 680 mmHg 95%
    02:00 +5°C° 0.1 mm 2 mps 680 mmHg 95%
    03:00 +5°C° 0.1 mm 2 mps 679 mmHg 95%
    04:00 +6°C° 0.1 mm 2 mps 679 mmHg 94%
    05:00 +5°C° 0.1 mm 2 mps 679 mmHg 95%
    06:00 +5°C° 0.1 mm 2 mps 679 mmHg 95%
    07:00 +5°C° 0.1 mm 2 mps 678 mmHg 95%
    08:00 +6°C° 0.1 mm 2 mps 678 mmHg 89%
    09:00 +7°C° 0.1 mm 2 mps 678 mmHg 82%
    10:00 +9°C° 0.1 mm 2 mps 678 mmHg 76%
    11:00 +9°C° 0.4 mm 3 mps 678 mmHg 74%
    12:00 +9°C° 0.4 mm 3 mps 677 mmHg 72%
    13:00 +9°C° 0.4 mm 3 mps 677 mmHg 70%
    14:00 +8°C° 1.2 mm 3 mps 676 mmHg 76%
    15:00 +7°C° 1.2 mm 2 mps 676 mmHg 83%
    16:00 +6°C° 1.2 mm 2 mps 675 mmHg 89%
    17:00 +6°C° 0.5 mm 2 mps 675 mmHg 91%
    18:00 +6°C° 0.5 mm 2 mps 675 mmHg 92%
    19:00 +5°C° 0.5 mm 2 mps 675 mmHg 94%
    20:00 +5°C° 0.7 mm 2 mps 675 mmHg 94%
    21:00 +4°C° 0.7 mm 3 mps 675 mmHg 94%
    22:00 +4°C° 0.7 mm 4 mps 675 mmHg 94%
    23:00 +4°C° 0.1 mm 4 mps 675 mmHg 94%

    22 January, Monday

    Time Temperature Precipitation Wind Pressure Humidity
    00:00 +4°C° 0.1 mm 4 mps 675 mmHg 93%
    01:00 +3°C° 0.1 mm 5 mps 675 mmHg 93%
    02:00 +2°C° 0.1 mm 5 mps 675 mmHg 93%
    03:00 +2°C° 0.1 mm 5 mps 675 mmHg 94%
    04:00 +1°C° 0.1 mm 5 mps 675 mmHg 94%
    05:00 +1°C° 0 mm 5 mps 675 mmHg 94%
    06:00 +1°C° 0 mm 5 mps 676 mmHg 94%
    07:00 +1°C° 0 mm 5 mps 676 mmHg 93%
    08:00 +2°C° 0 mm 5 mps 677 mmHg 83%
    09:00 +3°C° 0 mm 6 mps 678 mmHg 73%
    10:00 +5°C° 0 mm 6 mps 679 mmHg 62%
    11:00 +5°C° 0 mm 6 mps 679 mmHg 56%
    12:00 +6°C° 0 mm 7 mps 679 mmHg 50%
    13:00 +6°C° 0 mm 7 mps 679 mmHg 43%
    14:00 +5°C° 0 mm 6 mps 679 mmHg 47%
    15:00 +6°C° 0 mm 5 mps 679 mmHg 50%
    16:00 +5°C° 0 mm 5 mps 679 mmHg 53%
    17:00 +3°C° 0 mm 4 mps 680 mmHg 57%
    18:00 +1°C° 0 mm 4 mps 680 mmHg 61%
    19:00 +1°C° 0 mm 3 mps 681 mmHg 65%
    20:00 0°C° 0 mm 3 mps 681 mmHg 68%
    21:00 0°C° 0 mm 3 mps 681 mmHg 70%
    22:00 +1°C° 0 mm 2 mps 682 mmHg 72%
    23:00 +1°C° 0 mm 2 mps 682 mmHg 74%

    23 January, Tuesday

    Time Temperature Precipitation Wind Pressure Humidity
    00:00 -1°C° 0 mm 2 mps 682 mmHg 75%
    01:00 -1°C° 0 mm 2 mps 682 mmHg 76%
    02:00 -1°C° 0 mm 2 mps 682 mmHg 76%
    03:00 -1°C° 0 mm 2 mps 682 mmHg 76%
    04:00 -1°C° 0 mm 2 mps 683 mmHg 76%
    05:00 -1°C° 0 mm 2 mps 683 mmHg 75%
    06:00 -1°C° 0 mm 2 mps 683 mmHg 75%
    07:00 -1°C° 0 mm 2 mps 684 mmHg 75%
    08:00 +2°C° 0 mm 2 mps 684 mmHg 68%
    09:00 +4°C° 0 mm 2 mps 685 mmHg 62%
    10:00 +6°C° 0 mm 2 mps 686 mmHg 55%
    11:00 +6°C° 0 mm 2 mps 686 mmHg 54%
    12:00 +7°C° 0 mm 2 mps 685 mmHg 54%
    13:00 +8°C° 0 mm 3 mps 685 mmHg 53%
    14:00 +7°C° 0 mm 2 mps 685 mmHg 58%
    15:00 +6°C° 0 mm 2 mps 686 mmHg 64%
    16:00 +6°C° 0 mm 2 mps 686 mmHg 70%
    17:00 +5°C° 0.2 mm 2 mps 686 mmHg 75%
    18:00 +4°C° 0.2 mm 2 mps 686 mmHg 80%
    19:00 +3°C° 0.2 mm 2 mps 687 mmHg 85%
    20:00 +3°C° 0.2 mm 2 mps 687 mmHg 86%
    21:00 +3°C° 0.2 mm 2 mps 687 mmHg 87%
    22:00 +3°C° 0.2 mm 2 mps 687 mmHg 89%
    23:00 +2°C° 0 mm 2 mps 687 mmHg 89%

    24 January, Wednesday

    Time Temperature Precipitation Wind Pressure Humidity
    00:00 +2°C° 0 mm 2 mps 688 mmHg 90%
    01:00 +1°C° 0 mm 2 mps 688 mmHg 90%
    02:00 +1°C° 0 mm 2 mps 688 mmHg 91%
    03:00 +1°C° 0 mm 2 mps 688 mmHg 91%
    04:00 -1°C° 0 mm 2 mps 688 mmHg 92%
    05:00 -1°C° 0 mm 2 mps 688 mmHg 92%
    06:00 -1°C° 0 mm 2 mps 689 mmHg 92%
    07:00 -1°C° 0 mm 2 mps 689 mmHg 92%
    08:00 +1°C° 0 mm 2 mps 690 mmHg 85%
    09:00 +3°C° 0 mm 2 mps 690 mmHg 78%
    10:00 +4°C° 0 mm 2 mps 691 mmHg 72%
    11:00 +4°C° 0 mm 2 mps 691 mmHg 68%
    12:00 +5°C° 0 mm 2 mps 691 mmHg 64%
    13:00 +5°C° 0 mm 2 mps 691 mmHg 60%
    14:00 +5°C° 0 mm 2 mps 691 mmHg 62%
    15:00 +4°C° 0 mm 2 mps 691 mmHg 64%
    16:00 +3°C° 0 mm 2 mps 691 mmHg 66%
    17:00 +1°C° 0 mm 3 mps 691 mmHg 71%
    18:00 -1°C° 0 mm 3 mps 691 mmHg 75%
    19:00 -2°C° 0 mm 3 mps 691 mmHg 80%
    20:00 -2°C° 0 mm 3 mps 691 mmHg 80%
    21:00 -2°C° 0 mm 3 mps 691 mmHg 81%
    22:00 -4°C° 0 mm 3 mps 692 mmHg 81%
    23:00 -4°C° 0 mm 3 mps 691 mmHg 81%
    Show more